• en France
  • Liste des pays
  • À 7 jours
  • Température de l'eau
  • Carte satellitaire
  • Carte météo
  • Widgets météo
  • user-avatar
    Se connecter

    Météo par heure à Kriviny

    Ce jour, 20 Septembre, Jeudi

    Heure Température Précipitation Vent Pression Humidité
    00:00 +16°C° 0 mm 2 m/s 742 mmHg 94%
    01:00 +15°C° 0 mm 2 m/s 742 mmHg 95%
    02:00 +15°C° 0 mm 2 m/s 742 mmHg 97%
    03:00 +14°C° 0 mm 2 m/s 742 mmHg 97%
    04:00 +13°C° 0 mm 2 m/s 742 mmHg 97%
    05:00 +13°C° 0 mm 2 m/s 743 mmHg 98%
    06:00 +14°C° 0 mm 2 m/s 743 mmHg 94%
    07:00 +14°C° 0 mm 2 m/s 743 mmHg 91%
    08:00 +15°C° 0 mm 2 m/s 743 mmHg 88%
    09:00 +17°C° 0 mm 2 m/s 743 mmHg 79%
    10:00 +19°C° 0 mm 3 m/s 744 mmHg 71%
    11:00 +21°C° 0 mm 3 m/s 744 mmHg 62%
    12:00 +21°C° 0 mm 3 m/s 744 mmHg 60%
    13:00 +22°C° 0 mm 3 m/s 744 mmHg 57%
    14:00 +24°C° 0 mm 3 m/s 744 mmHg 54%
    15:00 +22°C° 0 mm 3 m/s 744 mmHg 59%
    16:00 +21°C° 0 mm 2 m/s 743 mmHg 64%
    17:00 +21°C° 0 mm 2 m/s 743 mmHg 69%
    18:00 +19°C° 0 mm 2 m/s 743 mmHg 74%
    19:00 +18°C° 0 mm 2 m/s 743 mmHg 79%
    20:00 +16°C° 0 mm 2 m/s 744 mmHg 84%
    21:00 +16°C° 0 mm 2 m/s 744 mmHg 85%
    22:00 +16°C° 0 mm 2 m/s 744 mmHg 86%
    23:00 +16°C° 0 mm 2 m/s 744 mmHg 87%

    Demain, 21 Septembre, Vendredi

    Heure Température Précipitation Vent Pression Humidité
    00:00 +15°C° 0 mm 2 m/s 744 mmHg 90%
    01:00 +15°C° 0 mm 2 m/s 744 mmHg 92%
    02:00 +15°C° 0 mm 2 m/s 744 mmHg 94%
    03:00 +15°C° 0 mm 2 m/s 744 mmHg 95%
    04:00 +15°C° 0 mm 2 m/s 744 mmHg 96%
    05:00 +15°C° 0 mm 2 m/s 744 mmHg 96%
    06:00 +16°C° 0 mm 2 m/s 744 mmHg 92%
    07:00 +17°C° 0 mm 2 m/s 744 mmHg 88%
    08:00 +18°C° 0 mm 3 m/s 744 mmHg 84%
    09:00 +20°C° 0 mm 3 m/s 744 mmHg 77%
    10:00 +22°C° 0 mm 3 m/s 744 mmHg 71%
    11:00 +25°C° 0 mm 4 m/s 744 mmHg 64%
    12:00 +25°C° 0 mm 4 m/s 744 mmHg 60%
    13:00 +26°C° 0 mm 4 m/s 744 mmHg 57%
    14:00 +27°C° 0 mm 4 m/s 743 mmHg 53%
    15:00 +26°C° 0 mm 4 m/s 743 mmHg 58%
    16:00 +25°C° 0 mm 3 m/s 743 mmHg 64%
    17:00 +24°C° 0 mm 3 m/s 742 mmHg 69%
    18:00 +22°C° 0 mm 3 m/s 742 mmHg 72%
    19:00 +21°C° 0 mm 3 m/s 742 mmHg 75%
    20:00 +19°C° 0 mm 3 m/s 741 mmHg 79%
    21:00 +19°C° 0 mm 4 m/s 741 mmHg 77%
    22:00 +19°C° 0 mm 4 m/s 741 mmHg 75%
    23:00 +18°C° 0 mm 4 m/s 740 mmHg 73%

    Après-demain, 22 Septembre, Samedi

    Heure Température Précipitation Vent Pression Humidité
    00:00 +18°C° 0 mm 4 m/s 740 mmHg 71%
    01:00 +18°C° 0 mm 4 m/s 739 mmHg 69%
    02:00 +17°C° 0 mm 5 m/s 738 mmHg 68%
    03:00 +17°C° 0 mm 5 m/s 738 mmHg 69%
    04:00 +17°C° 0 mm 5 m/s 737 mmHg 69%
    05:00 +17°C° 0 mm 5 m/s 737 mmHg 70%
    06:00 +17°C° 0.1 mm 5 m/s 737 mmHg 71%
    07:00 +16°C° 0.1 mm 5 m/s 737 mmHg 73%
    08:00 +16°C° 0.1 mm 5 m/s 737 mmHg 74%
    09:00 +15°C° 1.1 mm 4 m/s 737 mmHg 79%
    10:00 +13°C° 1.1 mm 4 m/s 737 mmHg 84%
    11:00 +12°C° 1.1 mm 3 m/s 738 mmHg 89%
    12:00 +12°C° 0.2 mm 3 m/s 738 mmHg 86%
    13:00 +12°C° 0.2 mm 3 m/s 738 mmHg 84%
    14:00 +13°C° 0.2 mm 3 m/s 738 mmHg 82%
    15:00 +13°C° 0 mm 3 m/s 738 mmHg 80%
    16:00 +13°C° 0 mm 3 m/s 738 mmHg 79%
    17:00 +13°C° 0 mm 3 m/s 738 mmHg 77%
    18:00 +12°C° 0 mm 3 m/s 738 mmHg 76%
    19:00 +11°C° 0 mm 3 m/s 739 mmHg 75%
    20:00 +11°C° 0 mm 3 m/s 739 mmHg 74%
    21:00 +10°C° 0 mm 3 m/s 739 mmHg 77%
    22:00 +10°C° 0 mm 3 m/s 739 mmHg 79%
    23:00 +9°C° 0 mm 3 m/s 739 mmHg 82%

    23 Septembre, Dimanche

    Heure Température Précipitation Vent Pression Humidité
    00:00 +9°C° 0 mm 2 m/s 738 mmHg 85%
    01:00 +8°C° 0 mm 2 m/s 738 mmHg 89%
    02:00 +7°C° 0 mm 2 m/s 738 mmHg 92%
    03:00 +7°C° 0 mm 2 m/s 738 mmHg 93%
    04:00 +7°C° 0 mm 2 m/s 738 mmHg 94%
    05:00 +5°C° 0 mm 3 m/s 737 mmHg 94%
    06:00 +7°C° 0 mm 3 m/s 737 mmHg 89%
    07:00 +7°C° 0 mm 4 m/s 737 mmHg 84%
    08:00 +8°C° 0 mm 4 m/s 737 mmHg 79%
    09:00 +10°C° 0 mm 4 m/s 737 mmHg 74%
    10:00 +12°C° 0 mm 5 m/s 736 mmHg 69%
    11:00 +13°C° 0 mm 5 m/s 736 mmHg 63%
    12:00 +13°C° 0.2 mm 5 m/s 736 mmHg 64%
    13:00 +13°C° 0.2 mm 5 m/s 736 mmHg 65%
    14:00 +13°C° 0.2 mm 6 m/s 736 mmHg 66%
    15:00 +12°C° 0.1 mm 5 m/s 736 mmHg 69%
    16:00 +11°C° 0.1 mm 4 m/s 736 mmHg 72%
    17:00 +11°C° 0.1 mm 4 m/s 736 mmHg 75%
    18:00 +10°C° 0 mm 4 m/s 736 mmHg 79%
    19:00 +9°C° 0 mm 3 m/s 736 mmHg 83%
    20:00 +8°C° 0 mm 3 m/s 736 mmHg 87%
    21:00 +8°C° 0 mm 3 m/s 736 mmHg 89%
    22:00 +8°C° 0 mm 3 m/s 737 mmHg 91%
    23:00 +7°C° 0 mm 3 m/s 737 mmHg 92%

    24 Septembre, Lundi

    Heure Température Précipitation Vent Pression Humidité
    00:00 +7°C° 0 mm 3 m/s 737 mmHg 94%
    01:00 +6°C° 0 mm 2 m/s 737 mmHg 95%
    02:00 +6°C° 0 mm 2 m/s 737 mmHg 97%
    03:00 +6°C° 0 mm 2 m/s 736 mmHg 97%
    04:00 +5°C° 0 mm 2 m/s 736 mmHg 97%
    05:00 +5°C° 0 mm 2 m/s 736 mmHg 98%
    06:00 +6°C° 0 mm 2 m/s 736 mmHg 94%
    07:00 +7°C° 0 mm 2 m/s 735 mmHg 91%
    08:00 +7°C° 0 mm 2 m/s 735 mmHg 88%
    09:00 +9°C° 0 mm 3 m/s 735 mmHg 80%
    10:00 +10°C° 0 mm 3 m/s 734 mmHg 73%
    11:00 +11°C° 0 mm 4 m/s 734 mmHg 65%
    12:00 +10°C° 0.7 mm 4 m/s 733 mmHg 71%
    13:00 +8°C° 0.7 mm 4 m/s 731 mmHg 78%
    14:00 +8°C° 0.7 mm 4 m/s 730 mmHg 84%
    15:00 +7°C° 2.6 mm 4 m/s 729 mmHg 87%
    16:00 +6°C° 2.6 mm 5 m/s 728 mmHg 90%
    17:00 +5°C° 2.6 mm 6 m/s 727 mmHg 93%
    18:00 +6°C° 1.8 mm 5 m/s 726 mmHg 93%
    19:00 +6°C° 1.8 mm 5 m/s 725 mmHg 94%
    20:00 +6°C° 1.8 mm 5 m/s 723 mmHg 94%
    21:00 +6°C° 1 mm 5 m/s 722 mmHg 94%
    22:00 +7°C° 1 mm 4 m/s 721 mmHg 95%
    23:00 +7°C° 1 mm 4 m/s 720 mmHg 95%

    25 Septembre, Mardi

    Heure Température Précipitation Vent Pression Humidité
    00:00 +7°C° 2.5 mm 4 m/s 719 mmHg 95%
    01:00 +7°C° 2.5 mm 4 m/s 719 mmHg 96%
    02:00 +7°C° 2.5 mm 4 m/s 718 mmHg 96%
    03:00 +7°C° 1.6 mm 4 m/s 718 mmHg 96%
    04:00 +6°C° 1.6 mm 4 m/s 718 mmHg 95%
    05:00 +6°C° 1.6 mm 4 m/s 718 mmHg 95%
    06:00 +6°C° 1.5 mm 5 m/s 719 mmHg 94%
    07:00 +4°C° 1.5 mm 6 m/s 719 mmHg 93%
    08:00 +4°C° 1.5 mm 6 m/s 720 mmHg 92%
    09:00 +4°C° 0.7 mm 7 m/s 721 mmHg 91%
    10:00 +4°C° 0.7 mm 7 m/s 721 mmHg 91%
    11:00 +5°C° 0.7 mm 7 m/s 722 mmHg 90%
    12:00 +5°C° 0.9 mm 7 m/s 723 mmHg 90%
    13:00 +5°C° 0.9 mm 7 m/s 724 mmHg 89%
    14:00 +5°C° 0.9 mm 8 m/s 725 mmHg 89%
    15:00 +4°C° 0.9 mm 8 m/s 726 mmHg 89%
    16:00 +4°C° 0.9 mm 8 m/s 727 mmHg 88%
    17:00 +4°C° 0.9 mm 8 m/s 728 mmHg 88%
    18:00 +4°C° 0.5 mm 8 m/s 729 mmHg 87%
    19:00 +2°C° 0.5 mm 8 m/s 730 mmHg 87%
    20:00 +3°C° 0.5 mm 7 m/s 731 mmHg 86%
    21:00 +3°C° 0.1 mm 7 m/s 732 mmHg 85%
    22:00 +3°C° 0.1 mm 7 m/s 732 mmHg 85%
    23:00 +2°C° 0.1 mm 7 m/s 733 mmHg 84%
    Voir plus